Retour au catalogue

NINGXIA-1 8

ActifScienceLEO
NORAD 49020·PAYLOAD·🇨🇳 China

Lancé Jul 9, 2021 depuis Taiyuan Satellite Launch Center

Loading…

Prochains Passages (prochaines 24 heures)

TLE

FraisSource: Space-Track

Époque: Sep 14, 2026, 14:48 UTC

1 49020U 21064C   26257.61698220 -.00000187  00000-0 -31869-4 0  9993
2 49020  44.9940 181.9768 0008758 312.0856  47.9235 14.08546214266830

Suivez NINGXIA-1 8 en temps réel avec AllMySat

Download on the App Store